Location: Alsip
(41.6689°N, 87.7387°W)
Time: 22:51:56
(UTC+00:00)

X-37B - Pass Details

Date: 02 August 2021
Orbit: 381 x 393 km, 45.0° (Epoch: 29 August)

Event Time Altitude Azimuth Distance (km) Brightness Sun altitude
Exits shadow 08:44:58 27° 133° (SE) 777 2.1 -19.1°
Drops below altitude 10° 08:47:18 10° 87° (E) 1,396 4.0 -18.8°
Sets 08:49:32 0° 75° (ENE) 2,252 5.5 -18.6°
